When you browse on this site, cookies collect data to enhance your experience and personalize the content and advertising you see.
Visit our Privacy Policy to learn more. By continuing to use the site, you agree to this use of cookies and data.
  • In United Kingdom
  • List of Countries
  • For 7 days
  • Water Temperature
  • Weather Map
  • Weather Widgets
  • user-avatar
    Login

    Hourly Weather Middlesbrough

    Today, 17 October, Thursday

    Time Temperature Precipitation Wind Pressure Humidity
    00:00 +7°C° 0 mm 3 mps 751 mmHg 92%
    01:00 +7°C° 0 mm 3 mps 751 mmHg 92%
    02:00 +7°C° 0 mm 3 mps 751 mmHg 92%
    03:00 +5°C° 0 mm 3 mps 751 mmHg 92%
    04:00 +5°C° 0 mm 3 mps 751 mmHg 93%
    05:00 +5°C° 0 mm 3 mps 751 mmHg 93%
    06:00 +5°C° 0 mm 3 mps 751 mmHg 93%
    07:00 +6°C° 0 mm 4 mps 751 mmHg 90%
    08:00 +7°C° 0 mm 4 mps 751 mmHg 87%
    09:00 +8°C° 0 mm 4 mps 751 mmHg 84%
    10:00 +9°C° 0 mm 5 mps 751 mmHg 79%
    11:00 +10°C° 0 mm 5 mps 750 mmHg 73%
    12:00 +13°C° 0 mm 6 mps 750 mmHg 68%
    13:00 +13°C° 0 mm 6 mps 750 mmHg 69%
    14:00 +13°C° 0 mm 5 mps 750 mmHg 70%
    15:00 +13°C° 0 mm 5 mps 749 mmHg 70%
    16:00 +12°C° 0 mm 5 mps 749 mmHg 75%
    17:00 +10°C° 0 mm 5 mps 749 mmHg 79%
    18:00 +9°C° 0 mm 5 mps 748 mmHg 83%
    19:00 +9°C° 0 mm 5 mps 748 mmHg 85%
    20:00 +9°C° 0 mm 5 mps 748 mmHg 87%
    21:00 +8°C° 0 mm 5 mps 748 mmHg 89%
    22:00 +8°C° 0.2 mm 5 mps 748 mmHg 90%
    23:00 +8°C° 0.2 mm 4 mps 747 mmHg 91%

    Tomorrow, 18 October, Friday

    Time Temperature Precipitation Wind Pressure Humidity
    00:00 +8°C° 0.2 mm 4 mps 747 mmHg 92%
    01:00 +8°C° 0.1 mm 4 mps 747 mmHg 93%
    02:00 +8°C° 0.1 mm 4 mps 746 mmHg 93%
    03:00 +8°C° 0.1 mm 4 mps 745 mmHg 93%
    04:00 +8°C° 0.2 mm 4 mps 745 mmHg 94%
    05:00 +9°C° 0.2 mm 3 mps 744 mmHg 94%
    06:00 +10°C° 0.2 mm 3 mps 744 mmHg 94%
    07:00 +10°C° 0.4 mm 3 mps 744 mmHg 93%
    08:00 +10°C° 0.4 mm 2 mps 744 mmHg 92%
    09:00 +10°C° 0.4 mm 2 mps 743 mmHg 91%
    10:00 +10°C° 0.6 mm 3 mps 743 mmHg 89%
    11:00 +10°C° 0.6 mm 4 mps 743 mmHg 87%
    12:00 +8°C° 0.6 mm 5 mps 743 mmHg 84%
    13:00 +10°C° 0.7 mm 4 mps 744 mmHg 82%
    14:00 +11°C° 0.7 mm 4 mps 744 mmHg 81%
    15:00 +11°C° 0.7 mm 4 mps 744 mmHg 79%
    16:00 +10°C° 0 mm 3 mps 744 mmHg 82%
    17:00 +9°C° 0 mm 3 mps 744 mmHg 85%
    18:00 +8°C° 0 mm 2 mps 744 mmHg 88%
    19:00 +8°C° 0 mm 2 mps 745 mmHg 89%
    20:00 +8°C° 0 mm 2 mps 745 mmHg 89%
    21:00 +7°C° 0 mm 2 mps 745 mmHg 89%
    22:00 +7°C° 0 mm 2 mps 745 mmHg 90%
    23:00 +7°C° 0 mm 2 mps 746 mmHg 90%

    Day after tomorrow, 19 October, Saturday

    Time Temperature Precipitation Wind Pressure Humidity
    00:00 +7°C° 0 mm 2 mps 746 mmHg 90%
    01:00 +7°C° 0 mm 2 mps 746 mmHg 91%
    02:00 +7°C° 0 mm 2 mps 746 mmHg 91%
    03:00 +6°C° 0 mm 2 mps 746 mmHg 92%
    04:00 +7°C° 0 mm 1 mps 746 mmHg 92%
    05:00 +7°C° 0 mm 1 mps 746 mmHg 92%
    06:00 +7°C° 0 mm 1 mps 746 mmHg 93%
    07:00 +8°C° 0 mm 1 mps 746 mmHg 91%
    08:00 +9°C° 0 mm 1 mps 746 mmHg 89%
    09:00 +10°C° 0 mm 1 mps 747 mmHg 88%
    10:00 +9°C° 0 mm 2 mps 747 mmHg 86%
    11:00 +10°C° 0 mm 3 mps 747 mmHg 84%
    12:00 +11°C° 0 mm 3 mps 747 mmHg 82%
    13:00 +11°C° 0.3 mm 3 mps 747 mmHg 83%
    14:00 +11°C° 0.3 mm 3 mps 747 mmHg 84%
    15:00 +11°C° 0.3 mm 3 mps 747 mmHg 85%
    16:00 +10°C° 0.3 mm 4 mps 748 mmHg 88%
    17:00 +10°C° 0.3 mm 4 mps 748 mmHg 91%
    18:00 +8°C° 0.3 mm 4 mps 749 mmHg 94%
    19:00 +8°C° 0.4 mm 4 mps 749 mmHg 94%
    20:00 +8°C° 0.4 mm 4 mps 750 mmHg 93%
    21:00 +8°C° 0.4 mm 4 mps 750 mmHg 93%
    22:00 +8°C° 0.2 mm 5 mps 751 mmHg 92%
    23:00 +8°C° 0.2 mm 5 mps 751 mmHg 92%

    20 October, Sunday

    Time Temperature Precipitation Wind Pressure Humidity
    00:00 +8°C° 0.2 mm 6 mps 751 mmHg 91%
    01:00 +8°C° 0.3 mm 6 mps 752 mmHg 90%
    02:00 +8°C° 0.3 mm 7 mps 752 mmHg 88%
    03:00 +8°C° 0.3 mm 7 mps 752 mmHg 87%
    04:00 +7°C° 0 mm 6 mps 753 mmHg 88%
    05:00 +5°C° 0 mm 6 mps 753 mmHg 88%
    06:00 +5°C° 0 mm 5 mps 753 mmHg 89%
    07:00 +6°C° 0 mm 5 mps 753 mmHg 85%
    08:00 +6°C° 0 mm 5 mps 754 mmHg 82%
    09:00 +7°C° 0 mm 6 mps 754 mmHg 78%
    10:00 +8°C° 0 mm 6 mps 754 mmHg 77%
    11:00 +8°C° 0 mm 6 mps 754 mmHg 77%
    12:00 +8°C° 0 mm 6 mps 755 mmHg 76%
    13:00 +8°C° 0.1 mm 6 mps 755 mmHg 79%
    14:00 +8°C° 0.1 mm 6 mps 755 mmHg 81%
    15:00 +8°C° 0.1 mm 7 mps 755 mmHg 84%
    16:00 +8°C° 0.3 mm 7 mps 756 mmHg 86%
    17:00 +8°C° 0.3 mm 7 mps 756 mmHg 87%
    18:00 +9°C° 0.3 mm 7 mps 756 mmHg 89%
    19:00 +9°C° 0.2 mm 8 mps 757 mmHg 89%
    20:00 +9°C° 0.2 mm 8 mps 758 mmHg 89%
    21:00 +8°C° 0.2 mm 9 mps 758 mmHg 89%
    22:00 +9°C° 0.2 mm 8 mps 759 mmHg 89%
    23:00 +9°C° 0.2 mm 8 mps 759 mmHg 89%

    21 October, Monday

    Time Temperature Precipitation Wind Pressure Humidity
    00:00 +8°C° 0.2 mm 7 mps 760 mmHg 90%
    01:00 +8°C° 0.2 mm 7 mps 760 mmHg 90%
    02:00 +8°C° 0.2 mm 7 mps 761 mmHg 91%
    03:00 +8°C° 0.2 mm 7 mps 761 mmHg 92%
    04:00 +8°C° 0.2 mm 7 mps 761 mmHg 91%
    05:00 +8°C° 0.2 mm 7 mps 762 mmHg 90%
    06:00 +8°C° 0.2 mm 7 mps 763 mmHg 90%
    07:00 +8°C° 0 mm 7 mps 763 mmHg 88%
    08:00 +8°C° 0 mm 7 mps 763 mmHg 87%
    09:00 +9°C° 0 mm 7 mps 764 mmHg 86%
    10:00 +9°C° 0 mm 6 mps 764 mmHg 84%
    11:00 +9°C° 0 mm 6 mps 764 mmHg 81%
    12:00 +10°C° 0 mm 6 mps 765 mmHg 79%
    13:00 +10°C° 0 mm 5 mps 765 mmHg 79%
    14:00 +9°C° 0 mm 5 mps 765 mmHg 80%
    15:00 +9°C° 0 mm 5 mps 764 mmHg 80%
    16:00 +8°C° 0 mm 4 mps 765 mmHg 82%
    17:00 +9°C° 0 mm 3 mps 765 mmHg 85%
    18:00 +8°C° 0 mm 2 mps 765 mmHg 87%
    19:00 +8°C° 0 mm 2 mps 765 mmHg 86%
    20:00 +9°C° 0 mm 1 mps 765 mmHg 85%
    21:00 +9°C° 0 mm 1 mps 765 mmHg 83%
    22:00 +9°C° 0 mm 1 mps 765 mmHg 83%
    23:00 +9°C° 0 mm 1 mps 765 mmHg 83%

    22 October, Tuesday

    Time Temperature Precipitation Wind Pressure Humidity
    00:00 +8°C° 0 mm 2 mps 765 mmHg 83%
    01:00 +8°C° 0 mm 2 mps 765 mmHg 83%
    02:00 +8°C° 0 mm 3 mps 765 mmHg 84%
    03:00 +7°C° 0 mm 3 mps 765 mmHg 84%
    04:00 +7°C° 0 mm 3 mps 765 mmHg 86%
    05:00 +7°C° 0 mm 3 mps 765 mmHg 88%
    06:00 +5°C° 0 mm 4 mps 765 mmHg 90%
    07:00 +6°C° 0 mm 4 mps 765 mmHg 88%
    08:00 +7°C° 0 mm 4 mps 765 mmHg 86%
    09:00 +8°C° 0 mm 4 mps 765 mmHg 83%
    10:00 +10°C° 0 mm 4 mps 765 mmHg 79%
    11:00 +10°C° 0 mm 5 mps 765 mmHg 76%
    12:00 +12°C° 0 mm 5 mps 765 mmHg 72%
    13:00 +12°C° 0 mm 5 mps 764 mmHg 72%
    14:00 +12°C° 0 mm 5 mps 764 mmHg 73%
    15:00 +10°C° 0 mm 5 mps 764 mmHg 74%
    16:00 +9°C° 0 mm 5 mps 763 mmHg 78%
    17:00 +8°C° 0 mm 4 mps 763 mmHg 83%
    18:00 +7°C° 0 mm 4 mps 763 mmHg 87%
    19:00 +7°C° 0 mm 4 mps 763 mmHg 88%
    20:00 +7°C° 0 mm 4 mps 763 mmHg 89%
    21:00 +6°C° 0 mm 4 mps 763 mmHg 90%
    22:00 +6°C° 0 mm 4 mps 763 mmHg 91%
    23:00 +6°C° 0 mm 4 mps 763 mmHg 92%
    Show more